Home   Weather   Würzburg   Past weeks

Flag for Germany Past Weather in Würzburg, Bavaria, Germany — Yesterday and Last 2 Weeks

Now
43 °F

Snow flurries. Partly sunny.


Feels Like: 41 °F
Forecast: 38 / 53 °F
Wind: 3 mph from Southwest

Location: Niederstetten

Current Time: Apr 27, 2017 at 5:01:59 pm

Latest Report: Apr 27, 2017 at 4:37 pm


Visibility: N/A

Pressure: 29.95 "Hg

Humidity: 76%

Dew Point: 36 °F

Location of WürzburgLocation

Past Weather in Würzburg — Graph

°F

Würzburg Temperature Yesterday

Maximum temperature yesterday: 43 °F (at 1:20 pm)
Minimum temperature yesterday: 36 °F (at 4:20 am)
Average temperature yesterday: 39 °F

High & Low Weather Summary for the Past Weeks

 TemperatureHumidityPressure
High59 °F (Apr 12, 3:20 pm)100% (Apr 17, 8:20 am)30.54 "Hg (Apr 17, 8:20 am)
Low27 °F (Apr 20, 5:20 am)29% (Apr 24, 5:20 pm)29.68 "Hg (Apr 25, 5:20 am)
Average42 °F69%30.08 "Hg
* Reported Apr 12 3:20 pm — Apr 27 3:20 pm, Würzburg, Weather by CustomWeather, © 2017

Note: Actual official high and low records may vary slightly from our data, if they occured in-between our weather recording intervals... More about our weather records

Advertising

Würzburg Weather History for the Previous 24 Hours

Scroll right to see more
 ConditionsComfort  
Time TempWeatherWind HumidityBarometerVisibility
3:20 pm
Thu, Apr 27
45 °FPartly sunny.2 mph71%29.95 "HgN/A
2:20 pm43 °FPartly sunny.1 mph71%29.95 "HgN/A
2:06 pm43 °FBroken clouds.2 mph76%29.95 "HgN/A
1:20 pm43 °FPartly sunny.3 mph76%29.95 "HgN/A
12:20 pm39 °FPartly sunny.5 mph87%29.95 "HgN/A
11:20 am39 °FMostly cloudy.5 mph93%29.95 "Hg6 mi
10:20 am37 °FLight rain. Mostly cloudy.5 mph100%29.95 "Hg5 mi
10:05 am37 °FDrizzle. Mostly cloudy.3 mph93%29.95 "Hg5 mi
9:20 am36 °FDrizzle. Mostly cloudy.6 mph100%29.95 "Hg4 mi
8:20 am36 °FDrizzle. Mostly cloudy.5 mph100%29.92 "Hg4 mi
7:20 am36 °FDrizzle. Mostly cloudy.3 mph100%29.92 "Hg4 mi
6:46 am36 °FDrizzle. Mostly cloudy.2 mph100%29.92 "Hg4 mi
6:20 am36 °FLight rain. Fog.2 mph93%29.92 "Hg3 mi
5:20 am36 °FRain. Fog.2 mph100%29.89 "Hg2 mi
4:20 am36 °FLight rain. Fog.5 mph100%29.89 "Hg3 mi
3:20 am37 °FLight rain. Fog.5 mph93%29.86 "Hg2 mi
2:20 am37 °FLight rain. Overcast.5 mph93%29.86 "Hg4 mi
1:20 am37 °FDrizzle. Overcast.6 mph93%29.89 "Hg5 mi
12:20 am39 °FLight rain. Overcast.6 mph87%29.89 "HgN/A
11:20 pm
Wed, Apr 26
39 °FMostly cloudy.2 mph87%29.89 "HgN/A
10:20 pm39 °FOvercast.2 mph87%29.89 "HgN/A
9:20 pm39 °FOvercast.5 mph81%29.86 "HgN/A
8:20 pm41 °FPartly sunny.2 mph76%29.86 "HgN/A
7:20 pm41 °FMostly cloudy.5 mph76%29.86 "HgN/A
6:20 pm43 °FLight rain. Mostly cloudy.7 mph71%29.86 "HgN/A
5:20 pm41 °FPartly sunny.7 mph76%29.86 "HgN/A
5:00 pm41 °FBroken clouds.7 mph76%29.86 "HgN/A
Weather by CustomWeather, © 2017

See weather overviewHow to use our weather pages